Flag for Colombia Weather past 2 weeks in Villavicencio, Colombia

Now
59 °F

Passing clouds.


Feels Like: 59 °F
Forecast: 65 / 89 °F
Wind: 2 mph from North

Location: Bogota / Eldorado

Current Time: Dec 21, 2014 at 9:31:55 PM

Latest Report: Dec 21, 2014 at 9:00 PM


Visibility: 5 mi

Pressure: 30.32 "Hg

Humidity: 82%

Dew point: 54 °F

Location of VillavicencioLocation

Historic Weather in Villavicencio — Graph

°F

Villavicencio temperature yesterday

Maximum temperature yesterday: 70 °F (at 2:00 PM)
Minimum temperature yesterday: 50 °F (at 3:00 AM)
Average temperature yesterday: 58 °F

Past Weeks' High & Low Weather Summary

 TemperatureHumidityPressure
High84 °F (Dec 16, 11:00 AM)100% (Dec 7, 2:00 AM)30.40 "Hg (Dec 7, 2:00 AM)
Low41 °F (Dec 19, 5:00 AM)40% (Dec 18, 1:00 PM)29.96 "Hg (Dec 16, 11:00 AM)
Average56 °F82%30.30 "Hg
* Reported Dec 6 8:00 PM — Dec 21 8:00 PM, Villavicencio, Weather by CustomWeather, © 2014

Note: Actual official high and low records may vary slightly from our data, if they occured in-between our weather recording intervals... More about our weather records

Advertising

Villavicencio weather history for previous 24 hours

 ConditionsComfort  
Time TempWeatherWind HumidityBarometerVisibility
8:00 PM
Dec 21
57 °FPassing clouds.2 mph88%30.30 "Hg5 mi
7:00 PM59 °FPassing clouds.5 mph82%30.27 "Hg5 mi
6:00 PM59 °FScattered showers. Passing clouds.3 mph82%30.25 "Hg6 mi
5:00 PM61 °FLight rain. Scattered clouds.12 mph77%30.24 "Hg6 mi
4:00 PM63 °FThunderstorms. Scattered clouds.12 mph68%30.22 "Hg6 mi
3:00 PM68 °FScattered clouds.14 mph60%30.22 "Hg6 mi
2:00 PM68 °FPartly sunny.12 mph60%30.25 "HgN/A
1:00 PM66 °FPartly sunny.12 mph64%30.28 "HgN/A
12:00 PM68 °FPartly sunny.2 mph49%30.30 "HgN/A
11:00 AM66 °FScattered clouds.5 mph56%30.33 "HgN/A
10:00 AM64 °FScattered clouds.2 mph56%30.34 "HgN/A
9:00 AM61 °FScattered clouds.5 mph68%30.35 "HgN/A
8:00 AM57 °FScattered clouds.6 mph77%30.34 "Hg5 mi
7:00 AM54 °FBroken clouds.5 mph88%30.32 "Hg5 mi
6:00 AM52 °FBroken clouds.3 mph88%30.30 "HgN/A
5:30 AM52 °FPartly cloudy.7 mph88%30.28 "HgN/A
5:00 AM52 °FPassing clouds.5 mph88%30.28 "HgN/A
4:00 AM52 °FPassing clouds.6 mph94%30.27 "Hg4 mi
3:00 AM54 °FPassing clouds.2 mph88%30.26 "Hg5 mi
2:00 AM54 °FPassing clouds.2 mph88%30.28 "Hg5 mi
12:00 AM55 °FPassing clouds.5 mph88%30.33 "HgN/A
11:00 PM
Dec 20
55 °FPassing clouds.2 mph88%30.33 "HgN/A
10:00 PM55 °FPassing clouds.No wind88%30.34 "HgN/A
9:00 PM57 °FPassing clouds.6 mph82%30.32 "HgN/A
Weather by CustomWeather, © 2014

See weather overviewHow to use our weather pages